Weather History for Lake Hood, AK

Change the Weather History Date:

Thursday, September 5, 2013

  Actual Average Record
Temperature  
Mean Temperature 54 °F -  
Max Temperature 62 °F 58 °F 68 °F (1996)
Min Temperature 48 °F 43 °F 37 °F (2004)
Degree Days  
Heating Degree Days 10    
Growing Degree Days 4 (Base 50)    
Moisture  
Dew Point 42 °F    
Average Humidity 63    
Maximum Humidity 86    
Minimum Humidity 46    
Precipitation  
Precipitation 0.01 in - - ()
Sea Level Pressure  
Sea Level Pressure 29.96 in    
Wind  
Wind Speed 7 mph (South)    
Max Wind Speed 15 mph    
Max Gust Speed 23 mph    
Visibility 10 miles    
Events Rain    
Averages and records for this station are not official NWS values.
T = Trace of Precipitation, MM = Missing Value Source: NWS Daily Summary

Daily Weather History Graph

Daily Weather History Graph

Search for Another Location

Airport:

Trip Planner

Search our weather history database for the weather conditions in past years. The results will help you decide how hot, cold, wet, or windy it might be!

Date:

Astronomy

Sep. 05, 2013 Rise Set
Actual Time 7:02 AM AKDT 8:52 PM AKDT
Civil Twilight 6:16 AM AKDT 9:37 PM AKDT
Nautical Twilight 5:17 AM AKDT 10:36 PM AKDT
Astronomical Twilight 4:02 AM AKDT 11:49 PM AKDT
Moon 7:45 AM AKDT (9/5) 8:20 PM AKDT (9/5)
Length of Visible Light 15h 20m
Length of Day
13h 49m
New Moon, 0% of the Moon is Illuminated
Sep 5
New Moon
Sep 12
First Quarter
Sep 19
Full
Sep 26
Last Quarter
Oct 4
New

Hourly Weather History & Observations

Time (AKDT) Temp. Dew Point Humidity Pressure Visibility Wind Dir Wind Speed Gust Speed Precip Events Conditions
12:53 AM 54.0 °F 44.1 °F 69% 29.83 in 10.0 mi SW 5.8 mph - N/A   Mostly Cloudy
1:53 AM 53.1 °F 43.0 °F 69% 29.86 in 10.0 mi SW 8.1 mph - N/A   Scattered Clouds
2:53 AM 53.1 °F 44.1 °F 71% 29.88 in 10.0 mi South 5.8 mph - N/A   Overcast
3:53 AM 53.1 °F 43.0 °F 69% 29.88 in 10.0 mi SSW 8.1 mph - N/A   Mostly Cloudy
4:53 AM 48.9 °F 44.1 °F 83% 29.88 in 10.0 mi SE 4.6 mph - N/A   Mostly Cloudy
5:53 AM 48.0 °F 44.1 °F 86% 29.90 in 10.0 mi ESE 3.5 mph - N/A   Scattered Clouds
6:53 AM 48.9 °F 44.1 °F 83% 29.90 in 10.0 mi Calm Calm - N/A   Mostly Cloudy
7:53 AM 51.1 °F 45.0 °F 80% 29.91 in 10.0 mi Calm Calm - N/A   Overcast
8:53 AM 54.0 °F 41.0 °F 62% 29.92 in 10.0 mi SSE 5.8 mph - N/A   Overcast
9:53 AM 55.0 °F 42.1 °F 62% 29.94 in 10.0 mi South 5.8 mph - 0.00 in Rain Light Rain
10:53 AM 55.9 °F 39.9 °F 55% 29.97 in 10.0 mi South 6.9 mph - 0.01 in   Overcast
11:53 AM 57.0 °F 41.0 °F 55% 29.99 in 10.0 mi South 6.9 mph - 0.00 in   Overcast
12:53 PM 59.0 °F 42.1 °F 53% 29.99 in 5.0 mi Variable 5.8 mph 16.1 mph N/A   Haze
1:53 PM 60.1 °F 41.0 °F 49% 30.00 in 10.0 mi SSE 10.4 mph 18.4 mph N/A   Scattered Clouds
2:53 PM 61.0 °F 39.9 °F 46% 30.01 in 10.0 mi SSE 6.9 mph 17.3 mph N/A   Mostly Cloudy
3:53 PM 61.0 °F 39.9 °F 46% 30.01 in 10.0 mi South 11.5 mph 17.3 mph N/A   Clear
4:53 PM 61.0 °F 39.9 °F 46% 30.00 in 10.0 mi South 9.2 mph 16.1 mph N/A   Overcast
5:53 PM 59.0 °F 42.1 °F 53% 30.00 in 10.0 mi South 10.4 mph 19.6 mph N/A   Overcast
6:53 PM 59.0 °F 42.1 °F 53% 30.01 in 10.0 mi South 11.5 mph 17.3 mph N/A   Overcast
7:53 PM 55.9 °F 43.0 °F 62% 30.01 in 10.0 mi South 13.8 mph 19.6 mph N/A   Scattered Clouds
8:53 PM 55.9 °F 42.1 °F 60% 30.02 in 10.0 mi South 15.0 mph 23.0 mph N/A   Partly Cloudy
9:53 PM 55.9 °F 42.1 °F 60% 30.02 in 10.0 mi South 9.2 mph 18.4 mph N/A   Partly Cloudy
10:53 PM 55.0 °F 43.0 °F 64% 30.02 in 10.0 mi South 9.2 mph 20.7 mph N/A   Overcast
11:53 PM 53.1 °F 45.0 °F 74% 30.03 in 10.0 mi SSE 5.8 mph - N/A   Overcast